Elmira, NY

4:00 PM EDT on June 26, 2017 (GMT -0400)
Elmira-Corning Regional

Weather History for KELM - January, 2013

Change the Weather History Date:

Sunday, January 6, 2013

  Actual Average Record
Temperature  
Mean Temperature 32 °F -  
Max Temperature 37 °F 33 °F 62 °F (2007)
Min Temperature 28 °F 16 °F -4 °F (1942)
Degree Days  
Heating Degree Days 32    
Moisture  
Dew Point 26 °F    
Average Humidity 73    
Maximum Humidity 85    
Minimum Humidity 62    
Precipitation  
Precipitation 0.00 in - - ()
Sea Level Pressure  
Sea Level Pressure 30.01 in    
Wind  
Wind Speed 4 mph (SW)    
Max Wind Speed 12 mph    
Max Gust Speed -    
Visibility 9 miles    
Events Snow    
Averages and records for this station are not official NWS values.
T = Trace of Precipitation, MM = Missing Value Source: NWS Daily Summary

Daily Weather History Graph

Daily Weather History Graph

Search for Another Location

Airport or City:

Trip Planner

Search our weather history database for the weather conditions in past years. The results will help you decide how hot, cold, wet, or windy it might be!

Date:

Astronomy

Jan. 06, 2013 Rise Set
Actual Time 7:36 AM EST 4:51 PM EST
Civil Twilight 7:04 AM EST 5:22 PM EST
Nautical Twilight 6:29 AM EST 5:57 PM EST
Astronomical Twilight 5:55 AM EST 6:31 PM EST
Moon 1:45 AM EST (1/6) 12:19 PM EST (1/6)
Length of Visible Light 10h 18m
Length of Day
9h 15m
Waning Crescent, 33% of the Moon is Illuminated
Jan 6
Waning Crescent
Jan 11
New
Jan 18
First Quarter
Jan 26
Full
Feb 3
Last Quarter

Hourly Weather History & Observations

Time (EST) Temp. Windchill Dew Point Humidity Pressure Visibility Wind Dir Wind Speed Gust Speed Precip Events Conditions
12:53 AM 28.9 °F - 21.0 °F 72% 30.11 in 10.0 mi Calm Calm - 0.00 in   Overcast
1:53 AM 28.0 °F - 21.0 °F 75% 30.09 in 10.0 mi Calm Calm - N/A   Overcast
2:53 AM 28.0 °F 24.2 °F 21.9 °F 78% 30.09 in 10.0 mi ESE 3.5 mph - N/A   Overcast
3:53 AM 28.0 °F - 21.0 °F 75% 30.06 in 10.0 mi Calm Calm - N/A   Overcast
5:53 AM 32.0 °F 26.4 °F 21.0 °F 64% 30.03 in 10.0 mi WSW 5.8 mph - N/A   Overcast
6:53 AM 32.0 °F 27.5 °F 21.9 °F 66% 30.03 in 10.0 mi WSW 4.6 mph - N/A   Overcast
7:53 AM 30.0 °F 24.1 °F 21.9 °F 72% 30.04 in 10.0 mi SW 5.8 mph - N/A   Overcast
8:53 AM 30.0 °F 25.2 °F 21.9 °F 72% 30.03 in 10.0 mi WSW 4.6 mph - N/A   Clear
9:53 AM 35.1 °F 28.6 °F 24.1 °F 64% 30.02 in 10.0 mi SW 8.1 mph - N/A   Scattered Clouds
11:53 AM 37.0 °F 30.4 °F 25.0 °F 62% 29.99 in 10.0 mi WSW 9.2 mph - N/A   Overcast
12:53 PM 37.0 °F 30.4 °F 26.1 °F 65% 29.96 in 10.0 mi SW 9.2 mph - N/A   Mostly Cloudy
1:53 PM 37.0 °F 30.4 °F 26.1 °F 65% 29.94 in 10.0 mi WSW 9.2 mph - N/A   Mostly Cloudy
2:53 PM 37.9 °F 30.5 °F 26.1 °F 62% 29.94 in 10.0 mi SW 11.5 mph - N/A   Overcast
3:28 PM 37.4 °F 29.8 °F 26.6 °F 65% 29.93 in 8.0 mi WSW 11.5 mph - 0.00 in Snow Light Snow
3:39 PM 37.4 °F 30.8 °F 26.6 °F 65% 29.93 in 10.0 mi WSW 9.2 mph - 0.00 in   Overcast
3:53 PM 37.0 °F 31.6 °F 27.0 °F 67% 29.96 in 10.0 mi SW 6.9 mph - 0.00 in   Overcast
4:53 PM 37.0 °F 30.4 °F 28.0 °F 70% 29.97 in 10.0 mi WSW 9.2 mph - N/A   Overcast
5:53 PM 36.0 °F 30.3 °F 28.0 °F 73% 29.99 in 7.0 mi WSW 6.9 mph - 0.00 in Snow Light Snow
6:53 PM 36.0 °F 31.1 °F 28.9 °F 76% 30.01 in 10.0 mi WSW 5.8 mph - 0.00 in   Overcast
7:53 PM 35.1 °F 32.2 °F 28.9 °F 78% 30.01 in 10.0 mi WSW 3.5 mph - 0.00 in   Overcast
8:35 PM 35.6 °F 32.8 °F 30.2 °F 81% 29.99 in 6.0 mi WSW 3.5 mph - 0.00 in Snow Light Snow
8:53 PM 35.1 °F 32.2 °F 30.0 °F 82% 30.03 in 7.0 mi WSW 3.5 mph - 0.00 in Snow Light Snow
9:17 PM 35.6 °F 31.7 °F 30.2 °F 81% 30.00 in 6.0 mi WSW 4.6 mph - 0.00 in Snow Light Snow
9:53 PM 34.0 °F 28.8 °F 30.0 °F 85% 30.04 in 9.0 mi SW 5.8 mph - 0.00 in   Overcast
10:53 PM 34.0 °F 29.8 °F 30.0 °F 85% 30.06 in 10.0 mi SW 4.6 mph - N/A   Overcast
11:53 PM 34.0 °F 29.8 °F 30.0 °F 85% 30.07 in 9.0 mi WSW 4.6 mph - N/A   Overcast